Starlink 3934

operational
NORAD ID: 52675 Int'l Des: 2022-053 Owner: SPXS Country: US Constellation: starlink
LEOCIRCULAR

About Starlink 3934

Description loading...

Live Position

Loading 3D Globe...

Upcoming Passes

Altitude History

Altitude vs Time

uPlot chart will show altitude changes over time

Two-Line Element Set

1 52675U 22053V 25257.30219835 -.00000076 00000-0 13286-4 0 9997
2 52675 53.2156 215.9555 0001137 87.8660 272.2463 15.08838864184547
Epoch: Sep 14, 2025 • Age: 24 hours

Current Status

Altitude 548.8 km
Velocity 7.59 km/s
Sub-Earth Point -28.47°S, 89.17°E
Launch Date May 18, 2022
Age 3.3 years
Type internet

Technical Details

Classification Payload
Mass 297.00 kg
Dry Mass 275.00 kg
Total Mass 297.00 kg
Length 0.20 m
Diameter 2.80 m
Span 9.00 m
Shape Box + pan
Manufacturer SPXS
Bus Type Starlink
Phase Status In Orbit
Owner/State SPXS/US

Large Constellations

Loading constellations...